Location: Jablonec nad Nisou
(50.7170°N, 15.1830°E)
Time: 20:03:04
(UTC+02:00)

ISS - Pass Details

Date: 01 April 2019
Orbit: 408 x 410 km, 51.6° (Epoch: 22 April)

Event Time Altitude Azimuth Distance (km) Brightness Sun altitude
Rises 20:09:54 0° 277° (W) 2,338 2.3 -6.8°
Reaches altitude 10° 20:12:00 10° 279° (W) 1,476 0.8 -7.1°
Maximum altitude 20:15:18 77° 5° (N) 425 -3.7 -7.6°
Enters shadow 20:18:32 11° 93° (E) 1,442 -1.7 -8.1°
